Change the Weather History Date:

Friday, January 4, 2013

  Actual Average Record
Temperature  
Mean Temperature 82 °F -  
Max Temperature 86 °F 84 °F - ()
Min Temperature 77 °F 77 °F - ()
Cooling Degree Days 16    
Growing Degree Days 32 (Base 50)    
Moisture  
Dew Point 73 °F    
Average Humidity 75    
Maximum Humidity 83    
Minimum Humidity 64    
Precipitation  
Precipitation 0.00 in - - ()
Sea Level Pressure  
Sea Level Pressure 30.00 in    
Wind  
Wind Speed 15 mph ()    
Max Wind Speed 24 mph    
Max Gust Speed -    
Visibility 7.5 miles    
Events Rain    
T = Trace of Precipitation, MM = Missing Value Source: Averaged Metar Reports

Daily Weather History Graph

Daily Weather History Graph

Search for Another Location

Airport or City:

Trip Planner

Search our weather history database for the weather conditions in past years. The results will help you decide how hot, cold, wet, or windy it might be!

Date:

Astronomy

Jan. 04, 2013 Rise Set
Actual Time 6:55 AM AST 6:21 PM AST
Civil Twilight 6:32 AM AST 6:44 PM AST
Nautical Twilight 6:05 AM AST 7:10 PM AST
Astronomical Twilight 5:39 AM AST 7:36 PM AST
Moon No Moon Rise 11:53 AM AST (1/4)
Length of Visible Light 12h 12m
Length of Day
11h 26m
Waning Gibbous, 55% of the Moon is Illuminated
Jan 4
Waning Gibbous
Jan 4
Last Quarter
Jan 11
New
Jan 18
First Quarter
Jan 27
Full

Hourly Weather History & Observations

Time (AST) Temp. Heat Index Dew Point Humidity Pressure Visibility Wind Dir Wind Speed Gust Speed Precip Events Conditions
12:00 AM 80.6 °F 85.4 °F 73.4 °F 79% 30.01 in - North - - N/A   Unknown
1:00 AM 80.6 °F 85.4 °F 73.4 °F 79% 29.98 in - North - - N/A   Unknown
2:00 AM 80 °F - 72 °F 69%  in - East 16.1 mph - -   Clear
2:00 AM 80.6 °F 84.6 °F 71.6 °F 74% 29.98 in - North - - N/A   Unknown
3:00 AM 80.6 °F 85.4 °F 73.4 °F 79% 29.98 in - North - - N/A   Unknown
4:00 AM 80.6 °F 84.6 °F 71.6 °F 74% 29.98 in - North - - N/A   Unknown
5:00 AM 80 °F - 72 °F 69%  in - East 10.4 mph - -   Clear
5:00 AM 78.8 °F - 71.6 °F 78% 29.98 in - North - - N/A   Unknown
6:00 AM 78.8 °F - 71.6 °F 78% 30.01 in - North - - N/A   Unknown
7:00 AM 78.8 °F - 71.6 °F 78% 30.01 in - North - - N/A   Unknown
8:00 AM 81 °F - 72 °F 67%  in - ESE 17.3 mph - -   Clear
8:00 AM 82.4 °F 88.2 °F 73.4 °F 74% 30.04 in - East 15.0 mph - N/A   Unknown
9:00 AM 82.4 °F 89.5 °F 75.2 °F 79% 30.06 in 6.2 mi East 15.0 mph - N/A   Scattered Clouds
10:00 AM 82.4 °F 88.2 °F 73.4 °F 74% 30.06 in - East 18.4 mph - N/A   Unknown
11:00 AM 83 °F - 73 °F 64% 30.08 in 19 mi ESE 24.2 mph - - Rain Light Rain Showers
11:00 AM 82.4 °F 88.2 °F 73.4 °F 74% 30.06 in 6.2 mi East 23.0 mph - N/A   Scattered Clouds
12:00 PM 86.0 °F 93.4 °F 73.4 °F 66% 30.04 in 6.2 mi East 21.9 mph - N/A   Scattered Clouds
1:00 PM 84.2 °F 90.9 °F 73.4 °F 70% 30.01 in 6.2 mi SE 20.7 mph - N/A   Scattered Clouds
2:00 PM 86.0 °F 93.4 °F 73.4 °F 66% 29.98 in 6.2 mi East 21.9 mph - N/A   Scattered Clouds
3:00 PM 77.0 °F - 71.6 °F 83% 29.98 in 6.2 mi ESE 16.1 mph - N/A Rain Rain
4:00 PM - - - N/A% 29.95 in - East 16.1 mph - N/A   Unknown
5:00 PM 80.6 °F 85.4 °F 73.4 °F 79% 29.95 in 6.2 mi East 17.3 mph - N/A   Scattered Clouds
6:00 PM 80.6 °F 84.6 °F 71.6 °F 74% 29.98 in 6.2 mi East 16.1 mph - N/A   Scattered Clouds
7:00 PM 78.8 °F - 73.4 °F 83% 29.98 in - East 11.5 mph - N/A   Unknown
8:00 PM 80.6 °F 85.4 °F 73.4 °F 79% 29.98 in - East 15.0 mph - N/A   Unknown
9:00 PM - - - N/A% 30.01 in - East 13.8 mph - N/A   Unknown
11:00 PM 80 °F - 74 °F 77%  in 6 mi East 12.7 mph - -   Clear
11:00 PM 78.8 °F - 73.4 °F 83% 30.01 in - East 12.7 mph - N/A   Unknown